FW0150 Weather Reports


time (UTC)temp
F
wind
direction
speed
knots
gust
knots
rain 1hr
in
rain 24hr
in
rain mn
in
humidity
%
barometer
mb
20260503021826 50 186 4.3 5.2 0.00 0.00 0.00 79 1021.7
20260503020748 50 196 3.5 5.2 0.00 0.00 0.00 78 1021.7
20260503020244 50 168 3.5 5.2 0.00 0.00 0.00 78 1021.7
20260503015825 50 159 3.5 6.1 0.00 0.00 0.00 77 1021.7
20260503014725 51 121 4.3 6.1 0.00 0.00 0.00 78 1021.8
20260503014209 51 188 4.3 7.8 0.00 0.00 0.00 78 1021.8
20260503013711 51 141 4.3 7.8 0.00 0.00 0.00 78 1021.8
20260503013217 51 124 5.2 6.1 0.00 0.00 0.00 78 1021.8
20260503012715 51 155 5.2 6.1 0.00 0.00 0.00 78 1021.9
20260503012226 51 195 4.3 6.1 0.00 0.00 0.00 77 1021.9
20260503011156 51 189 5.2 7.8 0.00 0.00 0.00 77 1022.1
20260503010655 51 185 5.2 6.1 0.00 0.00 0.00 76 1022.0
20260503010134 51 152 4.3 8.7 0.00 0.00 0.00 75 1022.0
20260503005647 51 168 5.2 10.4 0.00 0.00 0.00 75 1022.0
20260503004636 52 168 6.1 9.6 0.00 0.00 0.00 74 1022.0
20260503004211 52 135 6.1 9.6 0.00 0.00 0.00 75 1022.1
20260503002610 52 192 5.2 8.7 0.00 0.00 0.00 73 1022.3
20260503002112 52 162 5.2 8.7 0.00 0.00 0.00 74 1022.2
20260503001551 52 162 6.1 9.6 0.00 0.00 0.00 74 1022.2
20260503001048 52 183 6.1 9.6 0.00 0.00 0.00 73 1022.3
20260503000601 52 145 7.0 8.7 0.00 0.00 0.00 73 1022.3
20260503000041 52 186 6.1 8.7 0.00 0.00 0.00 73 1022.4
20260502235557 52 165 5.2 7.8 0.00 0.00 0.00 73 1022.3
20260502235037 52 197 6.1 8.7 0.00 0.00 0.00 72 1022.4
20260502234028 52 175 6.1 8.7 0.00 0.00 0.00 72 1022.4
20260502233523 52 195 6.1 8.7 0.00 0.00 0.00 72 1022.5
20260502233001 52 213 7.0 9.6 0.00 0.00 0.00 71 1022.5
20260502232456 52 202 6.1 9.6 0.00 0.00 0.00 71 1022.6
20260502231953 52 206 7.8 9.6 0.00 0.00 0.00 70 1022.6
20260502231448 53 197 6.1 9.6 0.00 0.00 0.00 70 1022.5
20260502230953 53 173 6.1 10.4 0.00 0.00 0.00 69 1022.6
20260502225945 53 196 7.8 9.6 0.00 0.00 0.00 68 1022.6
20260502225449 53 196 7.8 9.6 0.00 0.00 0.00 67 1022.7
20260502224943 53 216 6.1 8.7 0.00 0.00 0.00 67 1022.6
20260502224450 53 216 7.0 8.7 0.00 0.00 0.00 67 1022.7
20260502223944 53 216 5.2 8.7 0.00 0.00 0.00 67 1022.7
20260502223446 54 226 5.2 8.7 0.00 0.00 0.00 66 1022.6
20260502222958 54 231 5.2 8.7 0.00 0.00 0.00 66 1022.6
20260502222446 54 226 6.1 8.7 0.00 0.00 0.00 65 1022.6
20260502221951 55 227 6.1 8.7 0.00 0.00 0.00 64 1022.5
20260502220954 55 226 6.1 7.8 0.00 0.00 0.00 61 1022.7
20260502220443 57 251 3.5 4.3 0.00 0.00 0.00 56 1022.7
20260502215944 58 234 1.7 2.6 0.00 0.00 0.00 55 1022.7
20260502215437 58 147 1.7 1.7 0.00 0.00 0.00 55 1022.6
20260502214942 59 200 0.9 1.7 0.00 0.00 0.00 53 1022.6
20260502214435 60 234 0.0 2.6 0.00 0.00 0.00 52 1022.6
20260502213936 60 24 0.9 2.6 0.00 0.00 0.00 51 1022.6
20260502213435 61 23 2.6 2.6 0.00 0.00 0.00 50 1022.6
20260502212940 61 23 1.7 1.7 0.00 0.00 0.00 50 1022.6
20260502212435 61 21 0.9 1.7 0.00 0.00 0.00 51 1022.6
20260502211936 60 21 1.7 1.7 0.00 0.00 0.00 51 1022.6
20260502211434 59 344 0.9 2.6 0.00 0.00 0.00 52 1022.6
20260502210934 59 344 0.9 2.6 0.00 0.00 0.00 52 1022.6
20260502205934 60 321 0.0 0.9 0.00 0.00 0.00 50 1022.7
20260502205434 61 321 0.0 0.9 0.00 0.00 0.00 49 1022.7
20260502204434 61 321 0.0 0.0 0.00 0.00 0.00 49 1022.6
20260502203935 61 321 0.0 0.0 0.00 0.00 0.00 49 1022.6
20260502203435 61 323 0.0 0.0 0.00 0.00 0.00 48 1022.5
20260502202936 62 321 0.0 0.0 0.00 0.00 0.00 48 1022.5
20260502202435 62 27 0.0 0.9 0.00 0.00 0.00 48 1022.5
20260502201935 62 28 0.0 0.9 0.00 0.00 0.00 48 1022.5
20260502201439 62 73 0.0 0.9 0.00 0.00 0.00 49 1022.5
20260502200435 62 75 0.0 1.7 0.00 0.00 0.00 47 1022.5
20260502195936 63 73 0.9 3.5 0.00 0.00 0.00 47 1022.4
20260502195435 63 85 1.7 4.3 0.00 0.00 0.00 46 1022.3
20260502194933 63 79 2.6 4.3 0.00 0.00 0.00 46 1022.4
20260502194434 64 59 2.6 3.5 0.00 0.00 0.00 46 1022.3
20260502193435 64 68 2.6 3.5 0.00 0.00 0.00 46 1022.1
20260502192936 63 73 1.7 2.6 0.00 0.00 0.00 46 1022.1
20260502192434 63 66 1.7 3.5 0.00 0.00 0.00 47 1022.1
20260502190934 64 61 0.9 1.7 0.00 0.00 0.00 46 1022.0
20260502190431 64 61 0.0 2.6 0.00 0.00 0.00 46 1021.9
20260502185924 64 55 0.9 2.6 0.00 0.00 0.00 45 1021.9
20260502185423 64 56 1.7 2.6 0.00 0.00 0.00 44 1021.9
20260502183913 65 92 0.0 0.9 0.00 0.00 0.00 45 1021.7
20260502183409 65 102 0.9 1.7 0.00 0.00 0.00 44 1021.7
20260502182907 65 65 1.7 2.6 0.00 0.00 0.00 44 1021.6
20260502181842 65 68 1.7 3.5 0.00 0.00 0.00 44 1021.6
20260502180846 66 42 4.3 6.1 0.00 0.00 0.00 41 1021.5
20260502180338 67 30 5.2 7.8 0.00 0.00 0.00 41 1021.4
20260502170309 68 44 7.0 9.6 0.00 0.00 0.00 39 1021.5
20260502163808 69 25 7.0 10.4 0.00 0.00 0.00 39 1021.5
20260502163307 69 48 6.1 8.7 0.00 0.00 0.00 39 1021.5
20260502162308 69 24 6.1 10.4 0.00 0.00 0.00 39 1021.5
20260502161806 69 28 7.8 10.4 0.00 0.00 0.00 38 1021.6
20260502161308 69 34 6.1 12.2 0.00 0.00 0.00 39 1021.6
20260502160309 69 34 7.8 13.0 0.00 0.00 0.00 39 1021.6
20260502152246 69 31 5.2 13.0 0.00 0.00 0.00 38 1022.1
20260502151746 69 10 8.7 13.0 0.00 0.00 0.00 38 1022.1
20260502151245 69 321 3.5 11.3 0.00 0.00 0.00 37 1022.1
20260502150745 69 44 7.0 11.3 0.00 0.00 0.00 38 1022.1
20260502150248 69 42 8.7 11.3 0.00 0.00 0.00 38 1022.2
20260502130711 68 47 12.2 16.5 0.00 0.00 0.00 35 1023.4
20260502130206 68 54 11.3 20.0 0.00 0.00 0.00 35 1023.4
20260502123710 67 49 8.7 16.5 0.00 0.00 0.00 36 1023.6
20260502123207 68 28 7.0 15.6 0.00 0.00 0.00 38 1023.7
20260502122707 68 58 7.8 15.6 0.00 0.00 0.00 35 1023.9
20260502121705 68 79 7.0 15.6 0.00 0.00 0.00 39 1024.0
20260502121148 67 32 7.8 14.8 0.00 0.00 0.00 37 1023.9
20260502120647 67 47 9.6 16.5 0.00 0.00 0.00 40 1023.9
20260502115648 67 35 9.6 15.6 0.00 0.00 0.00 38 1024.1
20260502115145 67 45 7.0 13.0 0.00 0.00 0.00 37 1024.2
20260502114136 67 23 3.5 10.4 0.00 0.00 0.00 41 1024.1
20260502113640 67 344 6.1 12.2 0.00 0.00 0.00 42 1024.2
20260502113134 67 59 7.0 12.2 0.00 0.00 0.00 40 1024.3
20260502111637 66 31 7.8 11.3 0.00 0.00 0.00 41 1024.3
20260502111130 66 52 7.8 11.3 0.00 0.00 0.00 41 1024.4
20260502110632 66 345 3.5 11.3 0.00 0.00 0.00 41 1024.4
20260502110131 66 41 7.8 9.6 0.00 0.00 0.00 41 1024.6
20260502104628 64 52 8.7 13.0 0.00 0.00 0.00 40 1024.9
20260502104129 64 31 5.2 12.2 0.00 0.00 0.00 39 1024.9
20260502103633 64 72 8.7 12.2 0.00 0.00 0.00 41 1025.1
20260502102632 65 34 5.2 10.4 0.00 0.00 0.00 43 1025.2
20260502102129 64 55 5.2 13.0 0.00 0.00 0.00 39 1025.2
20260502101631 64 27 8.7 13.0 0.00 0.00 0.00 42 1025.2
20260502100629 63 44 7.8 13.0 0.00 0.00 0.00 42 1025.3
20260502091111 61 82 9.6 13.9 0.00 0.00 0.00 45 1025.6
20260502090611 61 31 9.6 13.9 0.00 0.00 0.00 44 1025.7
20260502071025 55 24 7.0 8.7 0.00 0.00 0.00 55 1026.0
20260502070032 54 21 5.2 8.7 0.00 0.00 0.00 58 1025.9
20260502065524 53 14 4.3 6.1 0.00 0.00 0.00 59 1025.9
20260502065038 53 340 4.3 6.1 0.00 0.00 0.00 60 1025.9
20260502064531 53 353 3.5 7.8 0.00 0.00 0.00 58 1025.9
20260502064022 52 321 4.3 7.8 0.00 0.00 0.00 58 1025.9
20260502063522 52 6 4.3 7.8 0.00 0.00 0.00 60 1025.9
20260502063027 51 10 5.2 7.8 0.00 0.00 0.00 58 1025.9
20260502062457 51 7 4.3 7.8 0.00 0.00 0.00 60 1026.0
20260502061440 50 347 4.3 6.1 0.00 0.00 0.00 61 1026.0
20260502060934 50 3 4.3 6.1 0.00 0.00 0.00 60 1026.0
20260502060435 50 8 3.5 6.1 0.00 0.00 0.00 60 1026.0
20260502055925 49 340 5.2 6.1 0.00 0.00 0.00 60 1026.0
20260502055422 49 351 5.2 6.1 0.00 0.00 0.00 60 1026.0
20260502054923 49 351 4.3 6.1 0.00 0.00 0.00 57 1026.0
20260502054424 49 336 3.5 6.1 0.00 0.00 0.00 59 1026.0
20260502052923 50 8 5.2 6.1 0.00 0.00 0.00 55 1025.9
20260502052409 50 350 5.2 6.1 0.00 0.00 0.00 56 1026.0
20260502051408 49 11 4.3 6.1 0.00 0.00 0.00 58 1025.9
20260502050346 48 20 4.3 5.2 0.00 0.00 0.00 58 1025.9
20260502045842 48 14 3.5 5.2 0.00 0.00 0.00 58 1026.0
20260502045346 49 1 5.2 5.2 0.00 0.00 0.00 58 1026.0
20260502044843 49 1 3.5 6.1 0.00 0.00 0.00 58 1025.9
20260502044339 49 355 5.2 6.1 0.00 0.00 0.00 57 1026.0
20260502043837 49 0 4.3 6.1 0.00 0.00 0.00 58 1025.9
20260502043332 49 354 5.2 6.1 0.00 0.00 0.00 58 1026.0
20260502042825 47 351 3.5 5.2 0.00 0.00 0.00 60 1026.0
20260502042325 47 3 4.3 4.3 0.00 0.00 0.00 60 1025.9
20260502041821 47 350 1.7 3.5 0.00 0.00 0.00 61 1026.0
20260502040824 47 341 1.7 3.5 0.00 0.00 0.00 61 1025.9
20260502035823 47 0 1.7 5.2 0.00 0.00 0.00 59 1025.9
20260502035325 48 348 2.6 5.2 0.00 0.00 0.00 59 1025.9
20260502034825 48 345 1.7 4.3 0.00 0.00 0.00 59 1025.9
20260502034306 48 327 2.6 4.3 0.00 0.00 0.00 59 1025.8
20260502033805 47 321 1.7 3.5 0.00 0.00 0.00 60 1025.8
20260502033303 47 8 0.9 2.6 0.00 0.00 0.00 60 1025.8
20260502032805 47 321 0.9 2.6 0.00 0.00 0.00 60 1025.7
20260502032305 47 331 0.9 2.6 0.00 0.00 0.00 60 1025.7
20260502031756 47 314 0.9 1.7 0.00 0.00 0.00 60 1025.7
20260502031251 47 340 0.9 1.7 0.00 0.00 0.00 60 1025.7
20260502030757 47 326 0.9 2.6 0.00 0.00 0.00 60 1025.8
20260502030253 47 312 0.9 2.6 0.00 0.00 0.00 60 1025.8
20260502025750 47 333 1.7 2.6 0.00 0.00 0.00 60 1025.8
20260502025249 47 326 1.7 2.6 0.00 0.00 0.00 59 1025.8
20260502024752 47 329 1.7 2.6 0.00 0.00 0.00 59 1025.8
20260502024248 47 341 0.9 2.6 0.00 0.00 0.00 58 1025.9
20260502023745 47 313 0.9 2.6 0.00 0.00 0.00 58 1025.8
20260502023247 47 331 0.9 3.5 0.00 0.00 0.00 58 1025.8
20260502022747 47 314 1.7 3.5 0.00 0.00 0.00 59 1025.8